Content
SEND FEEDBACK

Daily
Averages
Monthly
Summary
United States of America

FRASER, COLORADO


Home > North America > United States > Colorado
Elevation: 8625 feet     Latitude: 39 57N     Longitude: 105 50W

WEATHER
 
SELECT A DAY
Number of Records: 265,980;   Date Range: 8/13/03 - 9/29/14
 
SHARE

PRINT THIS DATA

[ ← Previous Day ]
WEATHER ALMANAC - JULY 11, 2014
[ Next Day → ]
[ °C ]   °F
Weather ElementAverageHighLow
Temperature66.1 °F82.4 °F (4:36 pm)55.4 °F (1:37 am)
Dewpoint48.8 °F53.6 °F (7:17 pm)33.8 °F (5:17 pm)
Humidity59.1 %88 % (11:17 pm)17 % (12:37 pm)
Barometer30.32 in30.40 in (2:17 pm)30.25 in (12:37 pm)
Wind Speed4.3 mph17.3 mph (1:37 pm)
Wind Gust24.2 mph (12:57 pm)
Weather ElementAverage
Visibility10 mi
Wind DirectionSE (130.6 °)

Weather ElementTotal
Precipitation0.25 in
Cooling Degree Days3.9 (Base 65)
Growing Degree Days18.9 (Base 50)
Averaged from 71 records on July 11, 2014
WEATHER CONDITIONS BREAKOUT
WIND DIRECTION BREAKOUT
WEATHER BY HOUR - JULY 11, 2014
[ °C ]   °F
Local TimeTemperatureDewpointHumidityBarometerVisibilityWind DirectionWind SpeedGust SpeedPrecipitationEventsConditions
12:17 AM62.6 °F48.2 °F59 %30.32 in10.0 miCalmOvercast
12:37 AM60.8 °F50.0 °F68 %30.33 in10.0 miCalmRain-ThunderstormRain
12:57 AM60.8 °F50.0 °F68 %30.33 in10.0 miCalmLight Drizzle
1:17 AM60.8 °F50.0 °F68 %30.33 in10.0 miSSW (200°)6.9 mphRain-ThunderstormLight Thunderstorms and Rain
1:57 AM59.0 °F50.0 °F72 %30.32 in10.0 miENE (60°)4.6 mphDrizzle
2:17 AM59.0 °F51.8 °F77 %30.32 in10.0 miEast (80°)8.1 mphLight Drizzle
2:37 AM59.0 °F51.8 °F77 %30.31 in10.0 miESE (120°)5.8 mphOvercast
2:57 AM59.0 °F51.8 °F77 %30.32 in10.0 miSW (220°)8.1 mphRainRain
3:17 AM59.0 °F51.8 °F77 %30.32 in10.0 miWNW (290°)3.5 mphMostly Cloudy
3:37 AM59.0 °F51.8 °F77 %30.32 in10.0 miCalmOvercast
3:57 AM59.0 °F51.8 °F77 %30.32 in10.0 miEast (100°)6.9 mphOvercast
4:17 AM59.0 °F51.8 °F77 %30.32 in10.0 miCalmDrizzle
4:37 AM55.4 °F51.8 °F88 %30.31 in10.0 miENE (60°)3.5 mphMostly Cloudy
4:57 AM55.4 °F51.8 °F88 %30.31 in10.0 miCalmClear
5:17 AM55.4 °F51.8 °F88 %30.32 in10.0 miCalmClear
5:37 AM55.4 °F51.8 °F88 %30.32 in10.0 miCalmClear
5:57 AM55.4 °F51.8 °F88 %30.33 in10.0 miCalmScattered Clouds
6:17 AM55.4 °F51.8 °F88 %30.34 in10.0 miCalmScattered Clouds
6:37 AM55.4 °F51.8 °F88 %30.35 in10.0 miCalmClear
6:57 AM55.4 °F51.8 °F88 %30.35 in10.0 miNE (50°)3.5 mphMostly Cloudy
7:16 AM57.2 °F51.8 °F82 %30.35 in10.0 miESE (120°)3.5 mphOvercast
7:37 AM59.0 °F53.6 °F82 %30.34 in10.0 miSE (130°)6.9 mphOvercast
7:57 AM60.8 °F51.8 °F72 %30.35 in10.0 miESE (120°)4.6 mphMostly Cloudy
8:17 AM62.6 °F51.8 °F68 %30.35 in10.0 miENE (70°)3.5 mphScattered Clouds
8:37 AM62.6 °F50.0 °F63 %30.35 in10.0 miEast (90°)5.8 mphMostly Cloudy
8:57 AM62.6 °F51.8 °F68 %30.35 in10.0 miCalmOvercast
9:17 AM69.8 °F53.6 °F56 %30.35 in10.0 miENE (60°)4.6 mphMostly Cloudy
9:37 AM69.8 °F51.8 °F53 %30.34 in10.0 miNE (50°)3.5 mphScattered Clouds
9:57 AM69.8 °F51.8 °F53 %30.34 in10.0 miCalmClear
10:16 AM69.8 °F50.0 °F49 %30.34 in10.0 miCalmScattered Clouds
10:37 AM71.6 °F50.0 °F46 %30.33 in10.0 miCalmClear
10:57 AM73.4 °F48.2 °F41 %30.33 in10.0 miCalmClear
11:17 AM73.4 °F46.4 °F38 %30.33 in10.0 miWest (270°)3.5 mphClear
11:37 AM75.2 °F46.4 °F36 %30.32 in10.0 miCalmClear
11:57 AM77.0 °F46.4 °F34 %30.32 in10.0 miNNW (330°)3.5 mphClear
12:17 PM77.0 °F44.6 °F32 %30.31 in10.0 miSouth (190°)3.5 mphClear
12:37 PM77.0 °F44.6 °F32 %30.31 in10.0 miCalmClear
12:57 PM80.6 °F42.8 °F26 %30.30 in10.0 miSW (230°)4.6 mphClear
1:17 PM80.6 °F42.8 °F26 %30.28 in10.0 miWest (280°)5.8 mphClear
1:36 PM80.6 °F42.8 °F26 %30.27 in10.0 miNW (310°)3.5 mphClear
1:57 PM82.4 °F41.0 °F23 %30.26 in10.0 miNNW (340°)9.2 mphThunderstormClear
2:16 PM80.6 °F41.0 °F24 %30.26 in10.0 miNE (40°)3.5 mphThunderstormScattered Clouds
2:36 PM78.8 °F37.4 °F23 %30.26 in10.0 miNNW (330°)17.3 mph24.2 mphThunderstormScattered Clouds
2:57 PM82.4 °F33.8 °F17 %30.26 in10.0 miNNW (330°)11.5 mph19.6 mphScattered Clouds
3:17 PM82.4 °F37.4 °F20 %30.26 in10.0 miNorth (350°)8.1 mphScattered Clouds
3:37 PM82.4 °F41.0 °F23 %30.26 in10.0 miNW (320°)4.6 mphScattered Clouds
3:57 PM82.4 °F41.0 °F23 %30.25 in10.0 miNW (320°)3.5 mphThunderstormClear
4:17 PM78.8 °F41.0 °F26 %30.26 in10.0 miSouth (180°)15.0 mph20.7 mphThunderstormThunderstorm
4:37 PM71.6 °F50.0 °F46 %30.29 in10.0 miWNW (300°)5.8 mphRain-ThunderstormLight Thunderstorms and Rain
4:56 PM68.0 °F53.6 °F60 %30.29 in10.0 miNorth (360°)9.2 mphThunderstormThunderstorm
5:17 PM77.0 °F48.2 °F36 %30.28 in10.0 miEast (90°)11.5 mph18.4 mphThunderstormScattered Clouds
5:37 PM73.4 °F50.0 °F44 %30.30 in10.0 miNNW (340°)10.4 mph19.6 mphThunderstormClear
5:57 PM71.6 °F50.0 °F46 %30.30 in10.0 miNE (50°)11.5 mph20.7 mphThunderstormClear
6:17 PM73.4 °F50.0 °F44 %30.30 in10.0 miENE (60°)6.9 mphThunderstormClear
6:37 PM73.4 °F48.2 °F41 %30.29 in10.0 miESE (120°)4.6 mphClear
6:57 PM71.6 °F48.2 °F43 %30.30 in10.0 miESE (120°)6.9 mphClear
7:17 PM69.8 °F50.0 °F49 %30.30 in10.0 miNNE (20°)4.6 mphThunderstormMostly Cloudy
7:37 PM69.8 °F51.8 °F53 %30.32 in10.0 miNNW (340°)4.6 mphThunderstormOvercast
7:57 PM69.8 °F46.4 °F43 %30.33 in10.0 miNorth (360°)8.1 mph19.6 mphRain-ThunderstormLight Thunderstorms and Rain
8:16 PM60.8 °F44.6 °F55 %30.32 in10.0 miNorth (10°)10.4 mphThunderstorm
8:36 PM60.8 °F50.0 °F68 %30.33 in10.0 miNorth (360°)3.5 mphThunderstormThunderstorm
8:57 PM60.8 °F46.4 °F59 %30.35 in10.0 miNNW (340°)3.5 mphThunderstormOvercast
9:17 PM57.2 °F50.0 °F77 %30.38 in7.0 miNW (320°)3.5 mph0.05 inRainRain
9:37 PM55.4 °F50.0 °F82 %30.38 in10.0 miNNE (30°)5.8 mph0.07 inRainRain
9:57 PM55.4 °F51.8 °F88 %30.39 in10.0 miSW (220°)4.6 mph0.08 inLight Drizzle
10:17 PM55.4 °F51.8 °F88 %30.40 in10.0 miCalm0.01 inRainRain
10:37 PM57.2 °F51.8 °F82 %30.39 in10.0 miEast (80°)4.6 mph0.02 inRainLight Rain
10:57 PM55.4 °F51.8 °F88 %30.38 in10.0 miESE (110°)8.1 mph0.02 inScattered Clouds
11:16 PM55.4 °F51.8 °F88 %30.39 in10.0 miCalmClear
11:36 PM55.4 °F51.8 °F88 %30.39 in10.0 miCalmClear
11:57 PM55.4 °F51.8 °F88 %30.38 in10.0 miCalmScattered Clouds
Hourly data recorded from K20V, located miles away from Fraser, Colorado







STORIES FROM OUR PARTNERS